Wetterdaten: Woche 26.02.18 - 04.03.18 (KW9)
Datum Zeit Temperatur Luftfeuchte Luftdruck Niederschlag Windrichtung Sonnenschein Solar Wind
26.02.2018 00:00 -10,2 C 73 % 1021,3 hPa 0,0 l/m NO 0,00 h 0 W/m 12,0 km/h (2 Bft)
26.02.2018 01:00 -10,7 C 75 % 1021,3 hPa 0,0 l/m NO 0,00 h 0 W/m 13,4 km/h (3 Bft)
26.02.2018 02:00 -11,3 C 76 % 1021,1 hPa 0,0 l/m NO 0,00 h 0 W/m 14,4 km/h (3 Bft)
26.02.2018 03:00 -11,8 C 77 % 1021,0 hPa 0,0 l/m NO 0,00 h 0 W/m 15,0 km/h (3 Bft)
26.02.2018 04:00 -12,2 C 77 % 1021,1 hPa 0,0 l/m NO 0,00 h 0 W/m 18,1 km/h (3 Bft)
26.02.2018 05:00 -12,5 C 77 % 1021,4 hPa 0,0 l/m NO 0,00 h 0 W/m 14,0 km/h (3 Bft)
26.02.2018 06:00 -13,1 C 77 % 1021,4 hPa 0,0 l/m NO 0,00 h 0 W/m 11,8 km/h (2 Bft)
26.02.2018 07:00 -13,2 C 77 % 1021,4 hPa 0,0 l/m O-NO 0,08 h 24 W/m 17,0 km/h (3 Bft)
26.02.2018 08:00 -12,7 C 78 % 1021,6 hPa 0,0 l/m O-NO 1,00 h 170 W/m 21,7 km/h (4 Bft)
26.02.2018 09:00 -11,7 C 78 % 1021,4 hPa 0,0 l/m O-NO 1,00 h 362 W/m 21,3 km/h (4 Bft)
26.02.2018 10:00 -11,1 C 77 % 1021,2 hPa 0,0 l/m NO 0,75 h 310 W/m 22,6 km/h (4 Bft)
26.02.2018 11:00 -10,8 C 74 % 1021,2 hPa 0,0 l/m O-NO 0,25 h 257 W/m 24,5 km/h (4 Bft)
26.02.2018 12:00 -9,3 C 67 % 1020,7 hPa 0,0 l/m O-NO 0,75 h 494 W/m 25,1 km/h (4 Bft)
26.02.2018 13:00 -9,2 C 67 % 1020,4 hPa 0,0 l/m N-NO 0,25 h 272 W/m 22,2 km/h (4 Bft)
26.02.2018 14:00 -8,9 C 67 % 1020,0 hPa 0,0 l/m NO 0,67 h 335 W/m 24,1 km/h (4 Bft)
26.02.2018 15:00 -8,7 C 65 % 1019,8 hPa 0,0 l/m O-NO 0,75 h 254 W/m 24,0 km/h (4 Bft)
26.02.2018 16:00 -9,2 C 67 % 1019,8 hPa 0,0 l/m NO 0,00 h 96 W/m 21,8 km/h (4 Bft)
26.02.2018 17:00 -9,5 C 69 % 1019,8 hPa 0,0 l/m O-NO 0,08 h 30 W/m 16,0 km/h (3 Bft)
26.02.2018 18:00 -10,1 C 69 % 1020,0 hPa 0,0 l/m O-NO 0,00 h 5 W/m 11,1 km/h (2 Bft)
26.02.2018 19:00 -10,5 C 71 % 1019,8 hPa 0,0 l/m O-NO 0,00 h 0 W/m 6,5 km/h (2 Bft)
26.02.2018 20:00 -10,9 C 72 % 1019,4 hPa 0,0 l/m O-NO 0,00 h 0 W/m 4,3 km/h (1 Bft)
26.02.2018 21:00 -11,4 C 75 % 1019,0 hPa 0,0 l/m N 0,00 h 0 W/m 1,9 km/h (1 Bft)
26.02.2018 22:00 -11,5 C 76 % 1018,7 hPa 0,0 l/m O-NO 0,00 h 0 W/m 5,3 km/h (1 Bft)
26.02.2018 23:00 -11,9 C 77 % 1018,4 hPa 0,0 l/m NO 0,00 h 0 W/m 4,1 km/h (1 Bft)
27.02.2018 00:00 -12,4 C 78 % 1018,5 hPa 0,0 l/m NO 0,00 h 0 W/m 0,5 km/h (0 Bft)
27.02.2018 01:00 -12,8 C 80 % 1018,1 hPa 0,0 l/m NO 0,00 h 0 W/m 5,3 km/h (1 Bft)
27.02.2018 02:00 -12,6 C 82 % 1017,5 hPa 0,0 l/m N-NO 0,00 h 0 W/m 7,0 km/h (2 Bft)
27.02.2018 03:00 -12,3 C 81 % 1017,0 hPa 0,0 l/m NO 0,00 h 0 W/m 13,2 km/h (3 Bft)
27.02.2018 04:00 -12,1 C 80 % 1016,8 hPa 0,0 l/m NO 0,00 h 0 W/m 12,4 km/h (3 Bft)
27.02.2018 05:00 -12,2 C 79 % 1016,7 hPa 0,0 l/m NO 0,00 h 0 W/m 11,7 km/h (2 Bft)
27.02.2018 06:00 -12,4 C 80 % 1016,5 hPa 0,0 l/m NO 0,00 h 0 W/m 12,8 km/h (3 Bft)
27.02.2018 07:00 -12,7 C 82 % 1016,6 hPa 0,0 l/m NO 0,00 h 26 W/m 12,0 km/h (2 Bft)
27.02.2018 08:00 -12,7 C 83 % 1016,7 hPa 0,0 l/m NO 0,00 h 80 W/m 12,5 km/h (3 Bft)
27.02.2018 09:00 -12,1 C 83 % 1016,7 hPa 0,0 l/m NO 0,83 h 227 W/m 13,3 km/h (3 Bft)
27.02.2018 10:00 -10,9 C 80 % 1016,6 hPa 0,0 l/m O-NO 1,00 h 357 W/m 14,8 km/h (3 Bft)
27.02.2018 11:00 -9,5 C 76 % 1016,4 hPa 0,0 l/m O-NO 1,00 h 508 W/m 15,2 km/h (3 Bft)
27.02.2018 12:00 -8,8 C 73 % 1016,0 hPa 0,0 l/m O-NO 1,00 h 517 W/m 16,8 km/h (3 Bft)
27.02.2018 13:00 -8,6 C 71 % 1015,6 hPa 0,0 l/m O-NO 0,92 h 412 W/m 19,0 km/h (3 Bft)
27.02.2018 14:00 -8,6 C 70 % 1015,4 hPa 0,0 l/m O-NO 0,83 h 303 W/m 17,0 km/h (3 Bft)
27.02.2018 15:00 -8,5 C 70 % 1015,4 hPa 0,0 l/m NO 0,50 h 215 W/m 15,7 km/h (3 Bft)
27.02.2018 16:00 -8,9 C 71 % 1015,3 hPa 0,0 l/m NO 0,17 h 118 W/m 14,6 km/h (3 Bft)
27.02.2018 17:00 -9,5 C 73 % 1015,9 hPa 0,0 l/m NO 0,08 h 26 W/m 13,3 km/h (3 Bft)
27.02.2018 18:00 -9,9 C 74 % 1016,5 hPa 0,0 l/m NO 0,00 h 5 W/m 12,2 km/h (2 Bft)
27.02.2018 19:00 -10,4 C 76 % 1016,5 hPa 0,0 l/m N-NO 0,00 h 0 W/m 9,7 km/h (2 Bft)
27.02.2018 20:00 -11,0 C 76 % 1016,3 hPa 0,0 l/m N-NO 0,00 h 0 W/m 8,9 km/h (2 Bft)
27.02.2018 21:00 -11,4 C 77 % 1016,4 hPa 0,0 l/m N 0,00 h 0 W/m 2,4 km/h (1 Bft)
27.02.2018 22:00 -12,2 C 78 % 1016,4 hPa 0,0 l/m N 0,00 h 0 W/m 0,5 km/h (0 Bft)
27.02.2018 23:00 -13,0 C 79 % 1016,3 hPa 0,0 l/m N 0,00 h 0 W/m 0,8 km/h (0 Bft)
28.02.2018 00:00 -13,4 C 81 % 1016,1 hPa 0,0 l/m N 0,00 h 0 W/m 0,5 km/h (0 Bft)
28.02.2018 01:00 -13,9 C 82 % 1016,0 hPa 0,0 l/m NO 0,00 h 0 W/m 1,3 km/h (1 Bft)
28.02.2018 02:00 -14,3 C 84 % 1015,8 hPa 0,0 l/m NO 0,00 h 0 W/m 6,5 km/h (2 Bft)
28.02.2018 03:00 -14,6 C 83 % 1015,8 hPa 0,0 l/m NO 0,00 h 0 W/m 7,6 km/h (2 Bft)
28.02.2018 04:00 -14,7 C 85 % 1015,7 hPa 0,0 l/m NO 0,00 h 0 W/m 9,1 km/h (2 Bft)
28.02.2018 05:00 -14,9 C 86 % 1015,9 hPa 0,0 l/m NO 0,00 h 0 W/m 9,3 km/h (2 Bft)
28.02.2018 06:00 -15,1 C 86 % 1016,2 hPa 0,0 l/m NO 0,00 h 0 W/m 9,4 km/h (2 Bft)
28.02.2018 07:00 -15,3 C 86 % 1016,7 hPa 0,0 l/m N-NO 0,25 h 29 W/m 9,1 km/h (2 Bft)
28.02.2018 08:00 -14,7 C 87 % 1017,1 hPa 0,0 l/m NO 1,00 h 156 W/m 9,5 km/h (2 Bft)
28.02.2018 09:00 -12,9 C 84 % 1017,2 hPa 0,0 l/m O-NO 1,00 h 319 W/m 14,4 km/h (3 Bft)
28.02.2018 10:00 -10,5 C 77 % 1017,1 hPa 0,0 l/m O-NO 0,92 h 416 W/m 15,7 km/h (3 Bft)
28.02.2018 11:00 -8,8 C 70 % 1016,9 hPa 0,0 l/m O 1,00 h 512 W/m 18,8 km/h (3 Bft)
28.02.2018 12:00 -7,7 C 67 % 1016,6 hPa 0,0 l/m O-NO 1,00 h 538 W/m 21,3 km/h (4 Bft)
28.02.2018 13:00 -6,9 C 67 % 1016,6 hPa 0,0 l/m O-NO 1,00 h 518 W/m 20,0 km/h (4 Bft)
28.02.2018 14:00 -6,5 C 66 % 1016,6 hPa 0,0 l/m O-NO 1,00 h 416 W/m 21,2 km/h (4 Bft)
28.02.2018 15:00 -6,5 C 66 % 1016,3 hPa 0,0 l/m O-NO 0,92 h 278 W/m 21,0 km/h (4 Bft)
28.02.2018 16:00 -6,9 C 68 % 1015,7 hPa 0,0 l/m O-NO 0,50 h 124 W/m 18,8 km/h (3 Bft)
28.02.2018 17:00 -7,8 C 70 % 1015,4 hPa 0,0 l/m O-NO 0,00 h 32 W/m 17,8 km/h (3 Bft)
28.02.2018 18:00 -8,4 C 73 % 1015,3 hPa 0,0 l/m O-NO 0,00 h 5 W/m 17,7 km/h (3 Bft)
28.02.2018 19:00 -8,8 C 74 % 1014,6 hPa 0,0 l/m O-NO 0,00 h 0 W/m 18,2 km/h (3 Bft)
28.02.2018 20:00 -9,2 C 75 % 1013,6 hPa 0,0 l/m O-NO 0,00 h 0 W/m 16,6 km/h (3 Bft)
28.02.2018 21:00 -9,1 C 76 % 1013,2 hPa 0,0 l/m O-NO 0,00 h 0 W/m 17,4 km/h (3 Bft)
28.02.2018 22:00 -9,1 C 76 % 1012,4 hPa 0,0 l/m O-NO 0,00 h 0 W/m 16,8 km/h (3 Bft)
28.02.2018 23:00 -9,1 C 76 % 1011,9 hPa 0,0 l/m O-NO 0,00 h 0 W/m 16,5 km/h (3 Bft)
01.03.2018 00:00 -9,2 C 77 % 1011,0 hPa 0,0 l/m O-NO 0,00 h 0 W/m 15,8 km/h (3 Bft)
01.03.2018 01:00 -9,5 C 78 % 1010,6 hPa 0,0 l/m O-NO 0,00 h 0 W/m 17,6 km/h (3 Bft)
01.03.2018 02:00 -10,2 C 79 % 1010,0 hPa 0,0 l/m O-NO 0,00 h 0 W/m 15,8 km/h (3 Bft)
01.03.2018 03:00 -10,8 C 80 % 1009,3 hPa 0,0 l/m O-NO 0,00 h 0 W/m 18,0 km/h (3 Bft)
01.03.2018 04:00 -11,1 C 81 % 1008,4 hPa 0,0 l/m O-NO 0,00 h 0 W/m 18,0 km/h (3 Bft)
01.03.2018 05:00 -11,2 C 82 % 1007,8 hPa 0,0 l/m O-NO 0,00 h 0 W/m 18,5 km/h (3 Bft)
01.03.2018 06:00 -11,1 C 82 % 1007,4 hPa 0,0 l/m O-NO 0,00 h 0 W/m 15,3 km/h (3 Bft)
01.03.2018 07:00 -10,8 C 83 % 1007,1 hPa 0,0 l/m O-NO 0,00 h 16 W/m 17,6 km/h (3 Bft)
01.03.2018 08:00 -10,5 C 83 % 1006,7 hPa 0,0 l/m O-NO 0,00 h 83 W/m 17,3 km/h (3 Bft)
01.03.2018 09:00 -9,6 C 82 % 1006,1 hPa 0,0 l/m O-NO 0,00 h 169 W/m 16,4 km/h (3 Bft)
01.03.2018 10:00 -9,0 C 81 % 1006,0 hPa 0,0 l/m O-NO 0,00 h 152 W/m 17,2 km/h (3 Bft)
01.03.2018 11:00 -8,6 C 80 % 1005,6 hPa 0,0 l/m O-NO 0,00 h 162 W/m 18,0 km/h (3 Bft)
01.03.2018 12:00 -8,1 C 81 % 1005,0 hPa 0,0 l/m NO 0,00 h 180 W/m 16,4 km/h (3 Bft)
01.03.2018 13:00 -7,6 C 85 % 1004,3 hPa 0,0 l/m O-NO 0,00 h 202 W/m 15,0 km/h (3 Bft)
01.03.2018 14:00 -7,1 C 82 % 1004,0 hPa 0,0 l/m O-NO 0,00 h 164 W/m 16,9 km/h (3 Bft)
01.03.2018 15:00 -5,9 C 78 % 1003,3 hPa 0,0 l/m O-NO 0,92 h 260 W/m 17,6 km/h (3 Bft)
01.03.2018 16:00 -5,7 C 77 % 1002,8 hPa 0,0 l/m O-NO 0,08 h 108 W/m 16,0 km/h (3 Bft)
01.03.2018 17:00 -5,7 C 77 % 1002,8 hPa 0,0 l/m O-NO 0,58 h 63 W/m 18,1 km/h (3 Bft)
01.03.2018 18:00 -5,9 C 77 % 1003,0 hPa 0,0 l/m O-NO 0,00 h 5 W/m 19,6 km/h (3 Bft)
01.03.2018 19:00 -5,7 C 76 % 1002,5 hPa 0,0 l/m O-NO 0,00 h 0 W/m 15,6 km/h (3 Bft)
01.03.2018 20:00 -5,7 C 76 % 1002,1 hPa 0,0 l/m O-NO 0,00 h 0 W/m 13,4 km/h (3 Bft)
01.03.2018 21:00 -5,7 C 76 % 1001,5 hPa 0,0 l/m O-NO 0,00 h 0 W/m 13,8 km/h (3 Bft)
01.03.2018 22:00 -6,0 C 75 % 1000,9 hPa 0,0 l/m O-NO 0,00 h 0 W/m 14,5 km/h (3 Bft)
01.03.2018 23:00 -6,4 C 77 % 1000,3 hPa 0,0 l/m O-NO 0,00 h 0 W/m 15,7 km/h (3 Bft)
02.03.2018 00:00 -6,9 C 78 % 999,7 hPa 0,0 l/m O-NO 0,00 h 0 W/m 16,0 km/h (3 Bft)
02.03.2018 01:00 -7,3 C 79 % 999,2 hPa 0,0 l/m O-NO 0,00 h 0 W/m 14,6 km/h (3 Bft)
02.03.2018 02:00 -7,8 C 81 % 998,4 hPa 0,0 l/m O-NO 0,00 h 0 W/m 14,0 km/h (3 Bft)
02.03.2018 03:00 -8,2 C 82 % 997,9 hPa 0,0 l/m O-NO 0,00 h 0 W/m 13,3 km/h (3 Bft)
02.03.2018 04:00 -8,6 C 83 % 997,3 hPa 0,0 l/m NO 0,00 h 0 W/m 14,5 km/h (3 Bft)
02.03.2018 05:00 -8,9 C 85 % 996,7 hPa 0,0 l/m NO 0,00 h 0 W/m 13,3 km/h (3 Bft)
02.03.2018 06:00 -9,1 C 86 % 996,0 hPa 0,0 l/m O-NO 0,00 h 0 W/m 16,8 km/h (3 Bft)
02.03.2018 07:00 -9,5 C 87 % 995,6 hPa 0,0 l/m O-NO 0,00 h 25 W/m 16,9 km/h (3 Bft)
02.03.2018 08:00 -9,3 C 88 % 995,2 hPa 0,0 l/m NO 0,00 h 94 W/m 16,8 km/h (3 Bft)
02.03.2018 09:00 -8,6 C 89 % 994,6 hPa 0,0 l/m NO 0,25 h 175 W/m 17,3 km/h (3 Bft)
02.03.2018 10:00 -7,5 C 87 % 994,1 hPa 0,0 l/m NO 1,00 h 363 W/m 19,2 km/h (3 Bft)
02.03.2018 11:00 -6,0 C 84 % 994,1 hPa 0,0 l/m NO 1,00 h 425 W/m 15,7 km/h (3 Bft)
02.03.2018 12:00 -4,4 C 80 % 994,5 hPa 0,0 l/m SW 1,00 h 486 W/m 10,6 km/h (2 Bft)
02.03.2018 13:00 -3,7 C 78 % 996,0 hPa 0,0 l/m W-SW 0,58 h 342 W/m 6,0 km/h (2 Bft)
02.03.2018 14:00 -2,9 C 77 % 996,7 hPa 0,0 l/m SW 0,75 h 304 W/m 7,8 km/h (2 Bft)
02.03.2018 15:00 -1,8 C 75 % 997,1 hPa 0,0 l/m SW 0,00 h 139 W/m 4,9 km/h (1 Bft)
02.03.2018 16:00 -0,8 C 77 % 997,5 hPa 0,0 l/m SW 0,00 h 41 W/m 9,2 km/h (2 Bft)
02.03.2018 17:00 -1,2 C 87 % 998,1 hPa 0,0 l/m SW 0,00 h 15 W/m 6,2 km/h (2 Bft)
02.03.2018 18:00 -1,4 C 92 % 998,8 hPa 0,0 l/m SW 0,00 h 0 W/m 4,1 km/h (1 Bft)
02.03.2018 19:00 -1,1 C 94 % 998,9 hPa 0,0 l/m SW 0,00 h 0 W/m 8,2 km/h (2 Bft)
02.03.2018 20:00 -0,8 C 95 % 999,1 hPa 0,0 l/m S-SW 0,00 h 0 W/m 7,1 km/h (2 Bft)
02.03.2018 21:00 -0,7 C 95 % 999,3 hPa 0,6 l/m S-SW 0,00 h 0 W/m 1,5 km/h (1 Bft)
02.03.2018 22:00 -0,6 C 96 % 999,1 hPa 0,2 l/m S-SW 0,00 h 0 W/m 2,8 km/h (1 Bft)
02.03.2018 23:00 -1,2 C 95 % 999,1 hPa 0,0 l/m N 0,00 h 0 W/m 0,1 km/h (0 Bft)
03.03.2018 00:00 -2,4 C 95 % 999,2 hPa 0,0 l/m N 0,00 h 0 W/m 0,0 km/h (0 Bft)
03.03.2018 01:00 -3,0 C 95 % 999,5 hPa 0,0 l/m N 0,00 h 0 W/m 0,0 km/h (0 Bft)
03.03.2018 02:00 -3,4 C 95 % 999,3 hPa 0,0 l/m N 0,00 h 0 W/m 0,0 km/h (0 Bft)
03.03.2018 03:00 -4,6 C 95 % 998,7 hPa 0,0 l/m N 0,00 h 0 W/m 0,0 km/h (0 Bft)
03.03.2018 04:00 -5,5 C 95 % 997,7 hPa 0,0 l/m N 0,00 h 0 W/m 0,5 km/h (0 Bft)
03.03.2018 05:00 -6,4 C 95 % 997,0 hPa 0,0 l/m N 0,00 h 0 W/m 0,4 km/h (0 Bft)
03.03.2018 06:00 -6,2 C 95 % 996,3 hPa 0,0 l/m N 0,00 h 5 W/m 0,0 km/h (0 Bft)
03.03.2018 07:00 -5,6 C 96 % 996,1 hPa 0,0 l/m SW 0,00 h 11 W/m 1,1 km/h (0 Bft)
03.03.2018 08:00 -4,5 C 96 % 995,9 hPa 0,0 l/m W 0,00 h 47 W/m 4,1 km/h (1 Bft)
03.03.2018 09:00 -2,9 C 97 % 995,6 hPa 0,0 l/m NW 0,00 h 104 W/m 4,3 km/h (1 Bft)
03.03.2018 10:00 -1,7 C 96 % 995,2 hPa 0,0 l/m N 0,17 h 222 W/m 6,9 km/h (2 Bft)
03.03.2018 11:00 -0,6 C 93 % 994,6 hPa 0,0 l/m NO 0,67 h 355 W/m 9,9 km/h (2 Bft)
03.03.2018 12:00 0,4 C 91 % 994,7 hPa 0,0 l/m N-NO 0,58 h 387 W/m 10,7 km/h (2 Bft)
03.03.2018 13:00 0,9 C 90 % 995,1 hPa 0,0 l/m N-NO 0,58 h 374 W/m 8,8 km/h (2 Bft)
03.03.2018 14:00 1,4 C 89 % 995,3 hPa 0,0 l/m N-NO 0,58 h 334 W/m 10,3 km/h (2 Bft)
03.03.2018 15:00 1,0 C 90 % 996,5 hPa 0,0 l/m N-NO 0,00 h 165 W/m 4,4 km/h (1 Bft)
03.03.2018 16:00 0,8 C 91 % 997,4 hPa 0,0 l/m N 0,00 h 85 W/m 0,0 km/h (0 Bft)
03.03.2018 17:00 0,8 C 91 % 998,2 hPa 0,0 l/m N 0,00 h 34 W/m 0,0 km/h (0 Bft)
03.03.2018 18:00 0,6 C 92 % 998,9 hPa 0,0 l/m N 0,00 h 5 W/m 0,0 km/h (0 Bft)
03.03.2018 19:00 0,4 C 92 % 999,3 hPa 0,0 l/m N 0,00 h 0 W/m 0,0 km/h (0 Bft)
03.03.2018 20:00 0,4 C 94 % 999,5 hPa 0,0 l/m SW 0,00 h 0 W/m 5,5 km/h (1 Bft)
03.03.2018 21:00 0,5 C 95 % 1000,1 hPa 0,0 l/m S-SW 0,00 h 0 W/m 8,4 km/h (2 Bft)
03.03.2018 22:00 0,7 C 96 % 1000,2 hPa 0,2 l/m SW 0,00 h 0 W/m 12,5 km/h (3 Bft)
03.03.2018 23:00 0,8 C 97 % 1000,4 hPa 1,8 l/m SW 0,00 h 0 W/m 3,5 km/h (1 Bft)
04.03.2018 00:00 0,7 C 97 % 1000,9 hPa 0,0 l/m S-SW 0,00 h 0 W/m 2,7 km/h (1 Bft)
04.03.2018 01:00 0,6 C 97 % 1001,6 hPa 0,0 l/m S 0,00 h 0 W/m 1,3 km/h (1 Bft)
04.03.2018 02:00 0,6 C 97 % 1001,9 hPa 0,0 l/m N 0,00 h 0 W/m 0,1 km/h (0 Bft)
04.03.2018 03:00 0,7 C 98 % 1001,9 hPa 0,0 l/m SW 0,00 h 0 W/m 8,1 km/h (2 Bft)
04.03.2018 04:00 0,9 C 98 % 1001,6 hPa 0,0 l/m S 0,00 h 0 W/m 4,8 km/h (1 Bft)
04.03.2018 05:00 0,9 C 98 % 1001,1 hPa 0,0 l/m S-SO 0,00 h 0 W/m 4,8 km/h (1 Bft)
04.03.2018 06:00 0,3 C 98 % 1001,0 hPa 0,0 l/m N 0,00 h 5 W/m 0,3 km/h (0 Bft)
04.03.2018 07:00 -0,7 C 98 % 1001,0 hPa 0,0 l/m N 0,00 h 25 W/m 0,0 km/h (0 Bft)
04.03.2018 08:00 -1,0 C 98 % 1000,5 hPa 0,0 l/m N 0,50 h 151 W/m 0,0 km/h (0 Bft)
04.03.2018 09:00 0,5 C 99 % 1000,0 hPa 0,0 l/m N 0,67 h 289 W/m 0,0 km/h (0 Bft)
04.03.2018 10:00 2,2 C 97 % 999,7 hPa 0,0 l/m S-SO 1,00 h 416 W/m 2,7 km/h (1 Bft)
04.03.2018 11:00 4,4 C 92 % 999,2 hPa 0,0 l/m S-SO 1,00 h 563 W/m 3,6 km/h (1 Bft)
04.03.2018 12:00 5,8 C 87 % 998,7 hPa 0,0 l/m N-NO 1,00 h 597 W/m 10,6 km/h (2 Bft)
04.03.2018 13:00 5,8 C 85 % 998,2 hPa 0,0 l/m N-NO 1,00 h 571 W/m 11,5 km/h (2 Bft)
04.03.2018 14:00 5,7 C 86 % 997,5 hPa 0,0 l/m N-NO 1,00 h 506 W/m 11,2 km/h (2 Bft)
04.03.2018 15:00 6,6 C 83 % 997,0 hPa 0,0 l/m N 0,83 h 329 W/m 8,6 km/h (2 Bft)
04.03.2018 16:00 6,0 C 84 % 996,5 hPa 0,0 l/m N 0,17 h 129 W/m 3,2 km/h (1 Bft)
04.03.2018 17:00 4,7 C 88 % 996,1 hPa 0,0 l/m N 0,25 h 46 W/m 0,5 km/h (0 Bft)
04.03.2018 18:00 3,9 C 88 % 995,9 hPa 0,0 l/m N 0,00 h 6 W/m 2,0 km/h (1 Bft)
04.03.2018 19:00 2,9 C 89 % 995,6 hPa 0,0 l/m N 0,00 h 0 W/m 0,1 km/h (0 Bft)
04.03.2018 20:00 2,3 C 91 % 995,6 hPa 0,0 l/m N 0,00 h 0 W/m 0,4 km/h (0 Bft)
04.03.2018 21:00 2,2 C 92 % 996,3 hPa 0,0 l/m N 0,00 h 0 W/m 2,8 km/h (1 Bft)
04.03.2018 22:00 2,0 C 93 % 997,1 hPa 0,0 l/m N 0,00 h 0 W/m 0,3 km/h (0 Bft)
04.03.2018 23:00 1,7 C 93 % 997,9 hPa 0,0 l/m N 0,00 h 0 W/m 0,9 km/h (0 Bft)
Min-Datum _ 28.02.18 26.02.18 02.03.18 - - - - 26.02.18
_ Min-Zeit 07:35 12:50 10:55 - - - - 20:00
Minimum _ -15,4 C 64 % 993,8 hPa - - - - 0,0 km/h (0 Bft)
Max-Datum _ 04.03.18 04.03.18 26.02.18 03.03.18 - 26.02.18 04.03.18 26.02.18
_ Max-Zeit 15:35 08:45 08:15 23:05 - 07:20 14:20 08:20
Maximum _ 6,8 C 100 % 1021,7 hPa 1,8 l/m - 0,08 h 698 W/m 29,0 km/h
O-NO (5 Bft)
Durchschnitt _ -6,4 C 83 % 1007,4 hPa #2,8 l/m O-NO #36:40 h 217 W/m 10,7 km/h (2 Bft)